Flag for U.S.A. Weather past 2 weeks in St. George, Utah, U.S.A.

Now
41 °F

Clear.


Feels Like: 41 °F
Forecast: 39 / 59 °F
Wind: No wind

Location: Saint George

Current Time: Dec 22, 2014 at 1:39:37 AM

Latest Report: Dec 22, 2014 at 1:15 AM


Visibility: 10 mi

Pressure: 30.10 "Hg

Humidity: 76%

Dew point: 34 °F

Location of St. GeorgeLocation

Historic Weather in St. George — Graph

°F

St. George temperature yesterday

Maximum temperature yesterday: 54 °F (at 4:15 PM)
Minimum temperature yesterday: 34 °F (at 5:35 AM)
Average temperature yesterday: 42 °F

Past Weeks' High & Low Weather Summary

 TemperatureHumidityPressure
High66 °F (Dec 12, 2:55 PM)87% (Dec 7, 5:55 AM)30.41 "Hg (Dec 7, 5:55 AM)
Low30 °F (Dec 15, 7:15 AM)30% (Dec 12, 2:55 PM)29.86 "Hg (Dec 12, 3:55 PM)
Average45 °F66%30.14 "Hg
* Reported Dec 7 12:15 AM — Dec 22 12:35 AM, St. George, Weather by CustomWeather, © 2014

Note: Actual official high and low records may vary slightly from our data, if they occured in-between our weather recording intervals... More about our weather records

Advertising

St. George weather history for previous 24 hours

 ConditionsComfort  
Time TempWeatherWind HumidityBarometerVisibility
12:35 AM
Dec 22
43 °FClear.No wind71%30.10 "Hg10 mi
12:15 AM41 °FClear.No wind76%30.10 "Hg10 mi
11:55 PM
Dec 21
43 °FClear.3 mph71%30.09 "Hg10 mi
11:35 PM43 °FClear.7 mph71%30.10 "Hg10 mi
11:15 PM43 °FClear.No wind71%30.09 "Hg10 mi
10:55 PM43 °FClear.No wind71%30.10 "Hg10 mi
10:35 PM43 °FClear.3 mph71%30.10 "Hg10 mi
10:15 PM43 °FClear.No wind71%30.09 "Hg10 mi
9:55 PM45 °FClear.8 mph66%30.09 "Hg10 mi
9:35 PM43 °FClear.7 mph71%30.09 "Hg10 mi
8:55 PM43 °FClear.6 mph71%30.08 "Hg10 mi
8:35 PM45 °FClear.3 mph66%30.08 "Hg10 mi
8:15 PM45 °FClear.5 mph66%30.08 "Hg10 mi
7:55 PM45 °FClear.8 mph66%30.08 "Hg10 mi
7:35 PM45 °FClear.3 mph66%30.08 "Hg10 mi
7:15 PM46 °FClear.No wind62%30.07 "Hg10 mi
6:55 PM46 °FClear.3 mph62%30.07 "Hg10 mi
6:35 PM46 °FClear.3 mph62%30.07 "Hg10 mi
6:15 PM46 °FClear.No wind62%30.07 "Hg10 mi
5:55 PM50 °FClear.No wind58%30.07 "Hg10 mi
5:35 PM50 °FClear.No wind54%30.08 "Hg10 mi
5:15 PM52 °FSunny.5 mph54%30.08 "Hg10 mi
4:55 PM54 °FSunny.5 mph51%30.06 "Hg10 mi
4:35 PM54 °FSunny.No wind51%30.06 "Hg10 mi
4:15 PM54 °FSunny.No wind51%30.06 "Hg10 mi
3:55 PM52 °FSunny.No wind54%30.05 "Hg10 mi
3:35 PM52 °FSunny.No wind54%30.07 "Hg10 mi
3:15 PM52 °FSunny.3 mph54%30.07 "Hg10 mi
2:35 PM52 °FSunny.5 mph50%30.08 "Hg10 mi
1:55 PM50 °FSunny.No wind54%30.09 "Hg10 mi
1:35 PM48 °FSunny.No wind58%30.10 "Hg10 mi
1:15 PM50 °FSunny.No wind54%30.11 "Hg10 mi
12:55 PM48 °FSunny.No wind58%30.11 "Hg10 mi
12:35 PM48 °FSunny.No wind58%30.12 "Hg10 mi
12:15 PM46 °FSunny.5 mph62%30.15 "Hg10 mi
11:55 AM46 °FSunny.3 mph62%30.15 "Hg10 mi
11:35 AM45 °FSunny.No wind66%30.16 "Hg10 mi
11:15 AM43 °FSunny.3 mph66%30.17 "Hg10 mi
10:55 AM41 °FSunny.No wind70%30.18 "Hg10 mi
10:35 AM41 °FSunny.No wind70%30.18 "Hg10 mi
10:15 AM39 °FSunny.No wind75%30.17 "Hg10 mi
9:55 AM37 °FSunny.No wind75%30.18 "Hg10 mi
9:35 AM37 °FSunny.3 mph75%30.17 "Hg10 mi
9:15 AM36 °FSunny.No wind81%30.18 "Hg10 mi
8:55 AM36 °FSunny.6 mph75%30.18 "Hg10 mi
8:35 AM34 °FSunny.No wind81%30.16 "Hg10 mi
8:15 AM36 °FSunny.3 mph75%30.16 "Hg10 mi
7:55 AM34 °FSunny.3 mph81%30.16 "Hg10 mi
7:35 AM34 °FClear.3 mph81%30.16 "Hg10 mi
7:15 AM36 °FClear.3 mph75%30.16 "Hg10 mi
6:55 AM36 °FClear.6 mph75%30.15 "Hg10 mi
6:35 AM36 °FClear.5 mph75%30.13 "Hg10 mi
6:15 AM36 °FClear.No wind75%30.16 "Hg10 mi
5:55 AM34 °FClear.7 mph81%30.14 "Hg10 mi
5:35 AM34 °FClear.7 mph75%30.16 "Hg10 mi
5:15 AM36 °FClear.No wind81%30.16 "Hg10 mi
4:55 AM36 °FClear.3 mph81%30.15 "Hg10 mi
4:35 AM36 °FClear.5 mph75%30.14 "Hg10 mi
4:15 AM36 °FClear.No wind75%30.13 "Hg10 mi
3:55 AM36 °FClear.5 mph75%30.14 "Hg10 mi
3:35 AM37 °FClear.3 mph70%30.16 "Hg10 mi
3:15 AM36 °FClear.No wind75%30.17 "Hg10 mi
2:55 AM36 °FClear.No wind81%30.18 "Hg10 mi
2:35 AM37 °FClear.No wind75%30.19 "Hg10 mi
2:15 AM37 °FClear.No wind75%30.18 "Hg10 mi
1:55 AM37 °FClear.3 mph75%30.18 "Hg10 mi
1:35 AM37 °FClear.No wind75%30.17 "Hg10 mi
1:15 AM39 °FClear.5 mph70%30.16 "Hg10 mi
Weather by CustomWeather, © 2014

See weather overviewHow to use our weather pages